JDI6A EGPH-LGSK

Flight info

Callsign JDI6A
Flight time N/A
Altitude 41000
Route GOSAM P600 FENIK BADGA DCT SUTEB DCT GASTU/N0494F450 DCT NOMKA DCT ABERU T703 DEXIT DCT GOTAR DCT ADULA DCT RAMAP DCT MAKED UL617 IBIDI
Aircraft C750/M-SBDE3FGHRWXY/S

Departure

Time N/A
Airport Edinburgh Airport (EGPH)

Arrival

Time 2026-04-10 22:10
Airport Skiathos Island National Airport (LGSK)
Time Latitude Longitude Altitude Speed Heading
2026-04-10 21:56 39.71991 23.35489 15099 ft 409 kts 162°
2026-04-10 21:56 39.69343 23.36780 14568 ft 404 kts 162°
2026-04-10 21:56 39.66726 23.38053 14031 ft 399 kts 162°
2026-04-10 21:56 39.64140 23.39312 13475 ft 394 kts 162°
2026-04-10 21:57 39.61582 23.40557 12957 ft 391 kts 162°
2026-04-10 21:57 39.59049 23.41787 12443 ft 387 kts 162°
2026-04-10 21:57 39.56542 23.43005 11934 ft 383 kts 162°
2026-04-10 21:57 39.54063 23.44208 11429 ft 375 kts 162°
2026-04-10 21:58 39.51684 23.45364 10948 ft 354 kts 162°
2026-04-10 21:58 39.49435 23.46455 10492 ft 336 kts 162°
2026-04-10 21:58 39.47292 23.47490 10058 ft 322 kts 162°
2026-04-10 21:58 39.45239 23.48482 9618 ft 309 kts 162°
2026-04-10 21:59 39.43255 23.49442 9225 ft 301 kts 162°
2026-04-10 21:59 39.41301 23.50384 8829 ft 298 kts 162°
2026-04-10 21:59 39.39366 23.51319 8442 ft 296 kts 162°
2026-04-10 21:59 39.37446 23.52249 8051 ft 293 kts 161°
2026-04-10 22:00 39.35550 23.53167 7664 ft 289 kts 161°
2026-04-10 22:00 39.33677 23.54071 7282 ft 286 kts 161°
2026-04-10 22:00 39.31888 23.54937 6920 ft 259 kts 161°
2026-04-10 22:00 39.30211 23.55746 6573 ft 254 kts 162°
2026-04-10 22:01 39.28580 23.56531 6224 ft 247 kts 161°
2026-04-10 22:01 39.26994 23.57295 5897 ft 240 kts 161°
2026-04-10 22:01 39.25470 23.58029 5592 ft 235 kts 161°
2026-04-10 22:01 39.23943 23.58764 5288 ft 233 kts 160°
2026-04-10 22:02 39.22579 23.59420 5017 ft 232 kts 160°
2026-04-10 22:02 39.21069 23.60147 4710 ft 231 kts 159°
2026-04-10 22:02 39.19565 23.60870 4403 ft 229 kts 159°
2026-04-10 22:02 39.18040 23.61295 4002 ft 224 kts 183°
2026-04-10 22:03 39.16629 23.60658 3938 ft 205 kts 207°
2026-04-10 22:03 39.15407 23.59849 4070 ft 191 kts 208°
2026-04-10 22:03 39.14211 23.59070 4084 ft 194 kts 207°
2026-04-10 22:03 39.13003 23.58283 4087 ft 195 kts 207°
2026-04-10 22:04 39.11787 23.57489 4079 ft 196 kts 207°
2026-04-10 22:04 39.10565 23.56690 4086 ft 197 kts 207°
2026-04-10 22:04 39.09341 23.55892 4040 ft 199 kts 207°
2026-04-10 22:04 39.08101 23.55082 3887 ft 200 kts 207°
2026-04-10 22:05 39.06868 23.54278 3720 ft 197 kts 207°
2026-04-10 22:05 39.05664 23.53492 3544 ft 191 kts 207°
2026-04-10 22:05 39.04491 23.52728 3368 ft 188 kts 206°
2026-04-10 22:05 39.03330 23.51971 3209 ft 187 kts 206°
2026-04-10 22:06 39.02315 23.50964 2997 ft 187 kts 231°
2026-04-10 22:06 39.01827 23.49431 2851 ft 188 kts 260°
2026-04-10 22:06 39.01986 23.47771 2691 ft 190 kts 290°
2026-04-10 22:06 39.02771 23.46426 2533 ft 190 kts 320°
2026-04-10 22:07 39.03952 23.45765 2377 ft 189 kts 351°
2026-04-10 22:07 39.05233 23.45930 2222 ft 185 kts 18°
2026-04-10 22:07 39.06454 23.46375 2253 ft 180 kts 17°
2026-04-10 22:08 39.08869 23.47057 2245 ft 179 kts 11°
2026-04-10 22:08 39.10091 23.47352 2128 ft 176 kts 12°
2026-04-10 22:08 39.11284 23.47652 1738 ft 175 kts 13°
2026-04-10 22:08 39.12461 23.48010 1331 ft 171 kts 18°
2026-04-10 22:09 39.13552 23.48450 954 ft 160 kts 20°
2026-04-10 22:09 39.14577 23.48916 615 ft 153 kts 21°
2026-04-10 22:09 39.15545 23.49351 396 ft 142 kts 22°
2026-04-10 22:09 39.16458 23.49782 182 ft 137 kts 23°
2026-04-10 22:10 39.17342 23.50190 34 ft 128 kts 22°
2026-04-10 22:10 39.17998 23.50485 46 ft 61 kts 19°
2026-04-10 22:10 39.18265 23.50604 55 ft 36 kts 19°
2026-04-10 22:10 39.18366 23.50648 59 ft 8 kts 20°
2026-04-10 22:11 39.18409 23.50673 61 ft 6 kts 337°
2026-04-10 22:11 39.18390 23.50648 60 ft 8 kts 180°
2026-04-10 22:11 39.18312 23.50623 58 ft 13 kts 199°
2026-04-10 22:11 39.18217 23.50581 54 ft 16 kts 199°
2026-04-10 22:12 39.18108 23.50532 48 ft 14 kts 200°
2026-04-10 22:12 39.18010 23.50490 46 ft 16 kts 199°
2026-04-10 22:12 39.17894 23.50439 43 ft 19 kts 199°
2026-04-10 22:12 39.17782 23.50389 42 ft 14 kts 199°
2026-04-10 22:13 39.17719 23.50335 43 ft 11 kts 248°
2026-04-10 22:13 39.17690 23.50250 40 ft 8 kts 233°
2026-04-10 22:13 39.17661 23.50229 39 ft 0 kts 202°
2026-04-10 22:13 39.17649 23.50223 39 ft 3 kts 202°
2026-04-10 22:14 39.17609 23.50203 39 ft 8 kts 201°
2026-04-10 22:14 39.17603 23.50157 36 ft 0 kts 289°